Voltar ao catálogo

COSMOS 2499 DEB

LostPO
NORAD 55721·DEBRIS·🇷🇺 Russia

Lançado May 23, 2014 de Plesetsk Cosmodrome

Loading…

Próximas Passagens (próximas 24 horas)

TLE

ObsoletoSource: Space-Track

Época: May 20, 2023, 16:28 UTC

1 55721U 14028AH  23140.68657850  .00000260  00000-0  89711-3 0  9997
2 55721  82.9446 296.2418 0252421 120.5164 242.1121 12.83525282 15841

Acompanhe COSMOS 2499 DEB em tempo real com AllMySat

Download on the App Store